This is the latest recevied weather packets stored in our database for station/object WD4ITN. If no packets are shown the sender has not sent any weather packets the latest 10 day(s).
| Time | Temp. | Humidity | Pressure | Rain* | Wind** | Luminosity | Snow |
|---|---|---|---|---|---|---|---|
| 1778013503 | 22.22° C | 42% | 1010.4 hPa | 0 mm | - | - | - |
| 1778013198 | 22.22° C | 40% | 1010.3 hPa | 0 mm | - | - | - |
| 1778012896 | 22.22° C | 40% | 1010.3 hPa | 0 mm | - | - | - |
| 1778012612 | 22.22° C | 39% | 1010.4 hPa | 0 mm | - | - | - |
| 1778012310 | 22.22° C | 39% | 1010.5 hPa | 0 mm | - | - | - |
| 1778012004 | 22.22° C | 39% | 1010.4 hPa | 0 mm | - | - | - |
| 1778011708 | 22.78° C | 39% | 1010.5 hPa | 0 mm | - | - | - |
| 1778011396 | 22.78° C | 39% | 1010.4 hPa | 0 mm | - | - | - |
| 1778011102 | 22.78° C | 43% | 1010.5 hPa | 0 mm | - | - | - |
| 1778010802 | 22.78° C | 38% | 1010.4 hPa | 0 mm | - | - | - |
| 1778010522 | 22.78° C | 38% | 1010.4 hPa | 0 mm | - | - | - |
| 1778010193 | 22.78° C | 37% | 1010.4 hPa | 0 mm | - | - | - |
| 1778009914 | 22.78° C | 41% | 1010.6 hPa | 0 mm | - | - | - |
| 1778009308 | 22.22° C | 37% | 1010.7 hPa | 0 mm | - | - | - |
| 1778009006 | 22.22° C | 41% | 1010.7 hPa | 0 mm | - | - | - |
| 1778008699 | 22.22° C | 43% | 1011 hPa | 0 mm | - | - | - |
| 1778008398 | 22.78° C | 40% | 1010.9 hPa | 0 mm | - | - | - |
| 1778008114 | 22.78° C | 40% | 1011 hPa | 0 mm | - | - | - |
| 1778007809 | 22.22° C | 40% | 1010.8 hPa | 0 mm | - | - | - |
| 1778007503 | 22.78° C | 41% | 1011.2 hPa | 0 mm | - | - | - |
| 1778007208 | 22.78° C | 41% | 1011.1 hPa | 0 mm | - | - | - |
| 1778006903 | 22.22° C | 40% | 1011.2 hPa | 0 mm | - | - | - |
| 1778006603 | 22.22° C | 39% | 1011.3 hPa | 0 mm | - | - | - |
| 1778006321 | 22.22° C | 39% | 1011.3 hPa | 0 mm | - | - | - |
| 1778005995 | 22.22° C | 39% | 1011.3 hPa | 0 mm | - | - | - |
* Rain since midnight (hover to see other rain measurements)
** Current wind speed in m/s (hover to see current wind gust speed)